Location: ????????
(55.8351°N, 38.7040°E)
Time: 09:56:20
(UTC+00:00)

ATLAS 3B R/B - Pass Details

Date: 14 April 2024
Orbit: 943 x 1251 km, 63.8° (Epoch: 27 May)

Event Time Altitude Azimuth Distance (km) Brightness Sun altitude
Rises 00:20:56 0° 301° (WNW) 4,102 5.6 -15.2°
Reaches altitude 10° 00:23:42 10° 305° (NW) 3,169 5.1 -14.9°
Maximum altitude 00:31:22 62° 26° (NNE) 1,385 3.6 -14.2°
Drops below altitude 10° 00:39:09 10° 107° (ESE) 3,227 5.7 -13.3°
Sets 00:41:59 0° 110° (ESE) 4,181 6.2 -13.0°
